Location: Clinton NY
(43.0598°N, 75.3602°W)
Time: 04:18:53
(UTC-04:00)

Iridium 11 - Visible Passes

Search period start: 01 November 2014 00:00
Search period end: 10 November 2014 23:00
Orbit: 776 x 779 km, 86.4° (Epoch: 31 October)

Date Brightness Start Highest point End Pass type
(mag) Time Alt. Az. Time Alt. Az. Time Alt. Az.
01 Nov 7.2 04:57:41 10° NNE 05:02:21 32° E 05:06:59 10° SE visible
01 Nov 6.3 06:38:29 10° NNW 06:42:58 30° W 06:47:26 10° SW visible
01 Nov 8.5 19:38:24 10° WSW 19:41:25 15° WNW 19:44:26 10° NW visible
02 Nov 8.0 03:24:56 10° NNE 03:28:32 19° ENE 03:32:07 10° ESE visible
02 Nov 5.6 05:04:33 10° NNW 05:09:37 54° W 05:14:40 10° SSW visible
02 Nov 7.8 18:03:11 10° SW 18:07:33 27° WNW 18:11:57 10° NNW visible
03 Nov 8.7 02:54:24 10° ENE 02:54:35 10° ENE 02:54:45 10° ENE visible
03 Nov 5.5 04:30:54 10° N 04:36:09 84° E 04:41:21 10° S visible
03 Nov 6.7 17:28:49 10° SSW 17:33:50 48° W 17:38:53 10° N visible
04 Nov 6.5 03:57:32 10° N 04:02:33 46° E 04:07:32 10° SSE visible
04 Nov 6.6 05:39:03 10° NNW 05:42:54 21° W 05:46:44 10° SW visible
04 Nov 8.8 18:40:48 10° W 18:41:46 11° WNW 18:42:45 10° WNW visible
05 Nov 7.5 03:24:28 10° NNE 03:28:49 26° ENE 03:33:08 10° SE visible
05 Nov 5.9 05:04:51 10° NNW 05:09:37 38° W 05:14:22 10° SSW visible
05 Nov 8.3 18:04:09 10° WSW 18:07:49 19° WNW 18:11:31 10° NNW visible
06 Nov 8.2 02:52:03 10° NE 02:54:57 15° ENE 02:57:49 10° ESE visible
06 Nov 5.4 04:31:02 10° N 04:36:13 69° W 04:41:22 10° S visible
06 Nov 7.4 17:29:20 10° SW 17:34:01 34° W 17:38:44 10° NNW visible
07 Nov 5.8 03:57:29 10° N 04:03:05 64° ESE 04:07:51 10° SSE visible
07 Nov 7.1 05:43:56 14° W 05:43:56 14° W 05:45:38 10° WSW visible
08 Nov 7.9 03:32:58 14° SE 03:32:58 14° SE 03:33:49 10° SSE visible
08 Nov 7.6 05:13:37 11° SW 05:13:37 11° SW 05:13:51 10° SW visible
08 Nov 8.5 18:05:36 10° W 18:08:08 14° WNW 18:10:41 10° NW visible
09 Nov 8.0 17:30:05 10° SW 17:34:15 24° WNW 17:38:26 10° NNW visible
